{"data":{"norad_id":69141,"intl_designator":"2026-110T","name":"STARLINK-37654","alt_names":[],"object_type":"PAYLOAD","status":"ACTIVE","operator":null,"country":"US","launch_date":"2026-05-20","launch_site_code":"AFWTR","launch_vehicle":null,"mission":null,"orbit_class":"UNKNOWN","rcs_meters":null,"size_class":null,"mass_kg":null,"dimensions":null,"purposes":["comms"],"wikipedia_slug":null,"has_3d_model":false,"image_url":null,"decayed_at":null,"tle_current":{"epoch":"2026-09-19T14:52:27.973344Z","epoch_age_seconds":99219,"freshness":"FRESH","line1":"1 69141U 26110T   26262.61976821  .00011113  00000+0  34569-3 0  9995","line2":"2 69141  97.2877  97.7321 0003293 117.4160 242.7418 15.33472660 20084","mean_motion":15.3347266,"eccentricity":0.0003293,"inclination_deg":97.2877,"raan_deg":97.7321,"arg_perigee_deg":117.416,"mean_anomaly_deg":242.7418,"bstar":0.00034569,"rev_number":2008,"period_min":93.904510824471,"perigee_km":463.20728223406,"apogee_km":467.71447579718,"semimajor_km":6843.5978790156,"source":"CELESTRAK","updated_at":"2026-09-20T09:00:44.087734Z"}}}